• In Deutschland
  • Länderverzeichnis
  • Für 7 Tage
  • Wassertemperatur
  • Satellitenkarten
  • Wetterkarte
  • Widgets
  • user-avatar
    Anmelden

    Stündliche Wetter Deyang

    Heute, 27 April, Freitag

    Zeit Temperatur Niederschläge Wind Luftdruck Luftfeuchtigkeit
    00:00 +23°C° 0 mm 1 m/S 721 mmHg 54%
    01:00 +22°C° 0 mm 1 m/S 721 mmHg 54%
    02:00 +22°C° 0,1 mm 1 m/S 721 mmHg 54%
    03:00 +22°C° 0,1 mm 1 m/S 721 mmHg 55%
    04:00 +22°C° 0,1 mm 1 m/S 721 mmHg 55%
    05:00 +22°C° 0 mm 1 m/S 721 mmHg 55%
    06:00 +22°C° 0 mm 1 m/S 721 mmHg 54%
    07:00 +23°C° 0 mm 1 m/S 721 mmHg 54%
    08:00 +24°C° 0 mm 1 m/S 721 mmHg 50%
    09:00 +25°C° 0 mm 1 m/S 721 mmHg 46%
    10:00 +27°C° 0 mm 1 m/S 722 mmHg 41%
    11:00 +28°C° 0 mm 1 m/S 721 mmHg 39%
    12:00 +29°C° 0 mm 1 m/S 721 mmHg 36%
    13:00 +30°C° 0 mm 1 m/S 720 mmHg 34%
    14:00 +30°C° 0 mm 2 m/S 720 mmHg 35%
    15:00 +29°C° 0 mm 2 m/S 719 mmHg 35%
    16:00 +29°C° 0 mm 2 m/S 718 mmHg 36%
    17:00 +28°C° 0 mm 2 m/S 718 mmHg 40%
    18:00 +27°C° 0 mm 2 m/S 718 mmHg 43%
    19:00 +26°C° 0 mm 1 m/S 719 mmHg 47%
    20:00 +25°C° 0,2 mm 1 m/S 719 mmHg 50%
    21:00 +25°C° 0,2 mm 1 m/S 719 mmHg 54%
    22:00 +24°C° 0,2 mm 1 m/S 720 mmHg 57%
    23:00 +24°C° 0,1 mm 1 m/S 719 mmHg 60%

    Morgen, 28 April, Samstag

    Zeit Temperatur Niederschläge Wind Luftdruck Luftfeuchtigkeit
    00:00 +23°C° 0,1 mm 1 m/S 719 mmHg 62%
    01:00 +23°C° 0,1 mm 1 m/S 719 mmHg 65%
    02:00 +22°C° 0 mm 1 m/S 718 mmHg 66%
    03:00 +22°C° 0 mm 1 m/S 718 mmHg 66%
    04:00 +22°C° 0 mm 1 m/S 717 mmHg 67%
    05:00 +22°C° 0 mm 1 m/S 717 mmHg 66%
    06:00 +22°C° 0 mm 1 m/S 717 mmHg 65%
    07:00 +23°C° 0 mm 1 m/S 717 mmHg 64%
    08:00 +24°C° 0,1 mm 2 m/S 717 mmHg 61%
    09:00 +25°C° 0,1 mm 2 m/S 717 mmHg 57%
    10:00 +26°C° 0,1 mm 2 m/S 717 mmHg 54%
    11:00 +26°C° 0,1 mm 2 m/S 717 mmHg 54%
    12:00 +26°C° 0,1 mm 2 m/S 716 mmHg 55%
    13:00 +26°C° 0,1 mm 3 m/S 716 mmHg 56%
    14:00 +27°C° 0,1 mm 2 m/S 715 mmHg 54%
    15:00 +27°C° 0,1 mm 2 m/S 715 mmHg 52%
    16:00 +28°C° 0,1 mm 2 m/S 715 mmHg 51%
    17:00 +27°C° 0 mm 2 m/S 715 mmHg 54%
    18:00 +26°C° 0 mm 2 m/S 715 mmHg 58%
    19:00 +25°C° 0 mm 2 m/S 716 mmHg 61%
    20:00 +24°C° 0 mm 2 m/S 716 mmHg 65%
    21:00 +24°C° 0 mm 1 m/S 717 mmHg 69%
    22:00 +23°C° 0 mm 1 m/S 717 mmHg 73%
    23:00 +22°C° 0 mm 1 m/S 717 mmHg 75%

    übermorgen, 29 April, Sonntag

    Zeit Temperatur Niederschläge Wind Luftdruck Luftfeuchtigkeit
    00:00 +22°C° 0 mm 1 m/S 716 mmHg 77%
    01:00 +21°C° 0 mm 1 m/S 716 mmHg 80%
    02:00 +21°C° 0 mm 1 m/S 716 mmHg 80%
    03:00 +20°C° 0 mm 1 m/S 716 mmHg 81%
    04:00 +20°C° 0 mm 1 m/S 715 mmHg 81%
    05:00 +21°C° 0 mm 1 m/S 716 mmHg 78%
    06:00 +22°C° 0 mm 1 m/S 716 mmHg 75%
    07:00 +22°C° 0 mm 1 m/S 716 mmHg 71%
    08:00 +24°C° 0 mm 1 m/S 717 mmHg 65%
    09:00 +26°C° 0 mm 1 m/S 717 mmHg 60%
    10:00 +28°C° 0 mm 1 m/S 717 mmHg 54%
    11:00 +29°C° 0,1 mm 1 m/S 716 mmHg 50%
    12:00 +30°C° 0,1 mm 1 m/S 716 mmHg 46%
    13:00 +32°C° 0,1 mm 1 m/S 715 mmHg 41%
    14:00 +32°C° 0 mm 1 m/S 714 mmHg 40%
    15:00 +32°C° 0 mm 1 m/S 714 mmHg 38%
    16:00 +32°C° 0 mm 1 m/S 713 mmHg 36%
    17:00 +30°C° 0 mm 1 m/S 713 mmHg 39%
    18:00 +29°C° 0 mm 1 m/S 713 mmHg 42%
    19:00 +28°C° 0 mm 1 m/S 713 mmHg 45%
    20:00 +27°C° 0 mm 1 m/S 714 mmHg 46%
    21:00 +27°C° 0 mm 1 m/S 715 mmHg 47%
    22:00 +26°C° 0 mm 1 m/S 715 mmHg 48%
    23:00 +26°C° 0 mm 1 m/S 715 mmHg 49%

    30 April, Montag

    Zeit Temperatur Niederschläge Wind Luftdruck Luftfeuchtigkeit
    00:00 +25°C° 0 mm 1 m/S 715 mmHg 49%
    01:00 +25°C° 0 mm 1 m/S 715 mmHg 50%
    02:00 +25°C° 0,2 mm 1 m/S 715 mmHg 52%
    03:00 +24°C° 0,2 mm 1 m/S 715 mmHg 54%
    04:00 +24°C° 0,2 mm 1 m/S 715 mmHg 56%
    05:00 +24°C° 0,5 mm 2 m/S 715 mmHg 58%
    06:00 +24°C° 0,5 mm 2 m/S 716 mmHg 60%
    07:00 +24°C° 0,5 mm 2 m/S 716 mmHg 62%
    08:00 +24°C° 0,2 mm 2 m/S 716 mmHg 58%
    09:00 +25°C° 0,2 mm 2 m/S 717 mmHg 54%
    10:00 +26°C° 0,2 mm 2 m/S 717 mmHg 51%
    11:00 +27°C° 0,1 mm 3 m/S 716 mmHg 46%
    12:00 +29°C° 0,1 mm 3 m/S 716 mmHg 42%
    13:00 +30°C° 0,1 mm 3 m/S 715 mmHg 37%
    14:00 +30°C° 0,1 mm 4 m/S 715 mmHg 38%
    15:00 +30°C° 0,1 mm 4 m/S 714 mmHg 39%
    16:00 +30°C° 0,1 mm 4 m/S 714 mmHg 39%
    17:00 +28°C° 0,1 mm 3 m/S 714 mmHg 43%
    18:00 +27°C° 0,1 mm 3 m/S 714 mmHg 46%
    19:00 +26°C° 0,1 mm 2 m/S 714 mmHg 50%
    20:00 +26°C° 0,1 mm 2 m/S 715 mmHg 50%
    21:00 +25°C° 0,1 mm 2 m/S 716 mmHg 51%
    22:00 +25°C° 0,1 mm 2 m/S 716 mmHg 51%
    23:00 +25°C° 0,2 mm 2 m/S 716 mmHg 52%

    1 Mai, Dienstag

    Zeit Temperatur Niederschläge Wind Luftdruck Luftfeuchtigkeit
    00:00 +24°C° 0,2 mm 2 m/S 716 mmHg 52%
    01:00 +24°C° 0,2 mm 2 m/S 717 mmHg 53%
    02:00 +24°C° 0,1 mm 2 m/S 717 mmHg 54%
    03:00 +23°C° 0,1 mm 2 m/S 717 mmHg 54%
    04:00 +22°C° 0,1 mm 3 m/S 717 mmHg 54%
    05:00 +23°C° 0 mm 2 m/S 718 mmHg 54%
    06:00 +23°C° 0 mm 2 m/S 718 mmHg 54%
    07:00 +23°C° 0 mm 2 m/S 719 mmHg 54%
    08:00 +25°C° 0,1 mm 3 m/S 720 mmHg 48%
    09:00 +26°C° 0,1 mm 3 m/S 720 mmHg 43%
    10:00 +28°C° 0,1 mm 4 m/S 721 mmHg 38%
    11:00 +29°C° 0,1 mm 3 m/S 720 mmHg 36%
    12:00 +30°C° 0,1 mm 3 m/S 720 mmHg 34%
    13:00 +30°C° 0,1 mm 3 m/S 719 mmHg 32%
    14:00 +30°C° 0,1 mm 3 m/S 719 mmHg 32%
    15:00 +30°C° 0,1 mm 3 m/S 718 mmHg 31%
    16:00 +31°C° 0,1 mm 2 m/S 718 mmHg 31%
    17:00 +29°C° 0,1 mm 2 m/S 718 mmHg 34%
    18:00 +28°C° 0,1 mm 2 m/S 719 mmHg 38%
    19:00 +26°C° 0,1 mm 2 m/S 719 mmHg 41%
    20:00 +26°C° 0,1 mm 2 m/S 720 mmHg 43%
    21:00 +25°C° 0,1 mm 1 m/S 720 mmHg 45%
    22:00 +25°C° 0,1 mm 1 m/S 721 mmHg 47%
    23:00 +24°C° 0,1 mm 1 m/S 721 mmHg 49%

    2 Mai, Mittwoch

    Zeit Temperatur Niederschläge Wind Luftdruck Luftfeuchtigkeit
    00:00 +24°C° 0,1 mm 1 m/S 720 mmHg 50%
    01:00 +23°C° 0,1 mm 1 m/S 720 mmHg 52%
    02:00 +23°C° 0,1 mm 1 m/S 720 mmHg 53%
    03:00 +23°C° 0,1 mm 1 m/S 720 mmHg 54%
    04:00 +23°C° 0,1 mm 2 m/S 720 mmHg 55%
    05:00 +23°C° 0 mm 2 m/S 720 mmHg 56%
    06:00 +23°C° 0 mm 2 m/S 721 mmHg 56%
    07:00 +23°C° 0 mm 2 m/S 721 mmHg 57%
    08:00 +24°C° 0 mm 2 m/S 721 mmHg 53%
    09:00 +25°C° 0 mm 3 m/S 721 mmHg 49%
    10:00 +26°C° 0 mm 3 m/S 722 mmHg 45%
    11:00 +27°C° 0,1 mm 3 m/S 721 mmHg 44%
    12:00 +27°C° 0,1 mm 4 m/S 721 mmHg 44%
    13:00 +28°C° 0,1 mm 4 m/S 720 mmHg 43%
    14:00 +27°C° 0,2 mm 4 m/S 720 mmHg 47%
    15:00 +26°C° 0,2 mm 4 m/S 719 mmHg 52%
    16:00 +25°C° 0,2 mm 4 m/S 719 mmHg 56%
    17:00 +23°C° 0,2 mm 4 m/S 719 mmHg 61%
    18:00 +22°C° 0,2 mm 4 m/S 719 mmHg 66%
    19:00 +21°C° 0,2 mm 3 m/S 719 mmHg 71%
    20:00 +20°C° 0,1 mm 3 m/S 720 mmHg 71%
    21:00 +20°C° 0,1 mm 2 m/S 720 mmHg 71%
    22:00 +20°C° 0,1 mm 2 m/S 720 mmHg 71%
    23:00 +19°C° 0 mm 2 m/S 720 mmHg 71%
    Mehr zeigen